GW3183 Weather Reports


time (UTC)temp
F
wind
direction
speed
knots
gust
knots
rain 1hr
in
rain 24hr
in
rain mn
in
humidity
%
barometer
mb
20260906225554 100 171 0.0 1.7 0.00 0.00 0.00 39 1009.3
20260906225051 100 149 0.9 2.6 0.00 0.00 0.00 39 1009.3
20260906224546 100 131 1.7 1.7 0.00 0.00 0.00 40 1009.4
20260906224043 99 159 1.7 2.6 0.00 0.00 0.00 41 1009.2
20260906223538 100 90 1.7 4.3 0.00 0.00 0.00 41 1009.3
20260906223037 99 117 1.7 1.7 0.00 0.00 0.00 41 1009.3
20260906222536 99 62 1.7 4.3 0.00 0.00 0.00 41 1009.2
20260906222034 100 148 1.7 2.6 0.00 0.00 0.00 41 1009.3
20260906221532 100 95 2.6 4.3 0.00 0.00 0.00 41 1009.3
20260906221028 100 109 1.7 4.3 0.00 0.00 0.00 42 1009.4
20260906220523 100 89 1.7 4.3 0.00 0.00 0.00 41 1009.5
20260906220018 101 95 0.0 2.6 0.00 0.00 0.00 40 1009.5
20260906215512 100 130 0.9 4.3 0.00 0.00 0.00 39 1009.6
20260906215010 101 314 2.6 4.3 0.00 0.00 0.00 40 1009.7
20260906214509 100 196 0.0 0.9 0.00 0.00 0.00 41 1009.7
20260906214009 100 173 0.9 2.6 0.00 0.00 0.00 42 1009.8
20260906213458 99 168 0.0 2.6 0.00 0.00 0.00 43 1010.0
20260906212956 101 95 2.6 4.3 0.00 0.00 0.00 41 1010.0
20260906212450 103 164 0.9 1.7 0.00 0.00 0.00 37 1010.0
20260906211946 101 76 2.6 2.6 0.00 0.00 0.00 40 1010.1
20260906211445 100 139 0.9 1.7 0.00 0.00 0.00 40 1010.3
20260906210941 100 57 0.9 1.7 0.00 0.00 0.00 42 1010.2
20260906210431 99 97 2.6 4.3 0.00 0.00 0.00 43 1010.3
20260906205924 101 48 1.7 1.7 0.00 0.00 0.00 42 1010.4
20260906205421 100 280 0.9 0.9 0.00 0.00 0.00 41 1010.6
20260906204917 100 119 2.6 2.6 0.00 0.00 0.00 42 1010.5
20260906204416 100 133 1.7 4.3 0.00 0.00 0.00 43 1010.6
20260906203915 100 158 1.7 4.3 0.00 0.00 0.00 42 1010.5
20260906203410 100 56 5.2 7.0 0.00 0.00 0.00 43 1010.6
20260906202908 100 188 0.0 0.9 0.00 0.00 0.00 44 1010.6
20260906202402 99 131 1.7 4.3 0.00 0.00 0.00 43 1010.8
20260906201902 100 120 2.6 5.2 0.00 0.00 0.00 42 1010.8
20260906201356 100 301 2.6 2.6 0.00 0.00 0.00 41 1010.8
20260906200851 99 159 0.9 1.7 0.00 0.00 0.00 42 1010.7
20260906200348 99 98 2.6 2.6 0.00 0.00 0.00 42 1010.9
20260906195842 100 183 3.5 5.2 0.00 0.00 0.00 42 1011.1
20260906195339 99 5 1.7 4.3 0.00 0.00 0.00 43 1011.1
20260906194834 100 171 0.9 1.7 0.00 0.00 0.00 43 1010.9
20260906194330 100 175 2.6 4.3 0.00 0.00 0.00 41 1011.2
20260906193825 100 146 0.0 5.2 0.00 0.00 0.00 44 1011.1
20260906193320 100 118 2.6 4.3 0.00 0.00 0.00 44 1011.1
20260906192815 100 79 0.9 4.3 0.00 0.00 0.00 43 1011.2
20260906192310 99 159 0.9 1.7 0.00 0.00 0.00 44 1011.2
20260906191809 99 110 1.7 2.6 0.00 0.00 0.00 44 1011.7
20260906191303 100 84 2.6 2.6 0.00 0.00 0.00 43 1011.6
20260906190757 101 169 0.9 1.7 0.00 0.00 0.00 42 1011.4
20260906190251 100 171 1.7 5.2 0.00 0.00 0.00 44 1011.6
20260906185750 100 46 0.9 4.3 0.00 0.00 0.00 43 1011.3
20260906185250 100 98 0.9 2.6 0.00 0.00 0.00 44 1011.5
20260906184745 100 18 1.7 5.2 0.00 0.00 0.00 45 1011.6
20260906184235 100 214 0.0 1.7 0.00 0.00 0.00 46 1011.6
20260906183730 99 166 0.0 2.6 0.00 0.00 0.00 45 1011.9
20260906183226 99 192 0.9 4.3 0.00 0.00 0.00 45 1011.7
20260906182725 99 159 0.9 2.6 0.00 0.00 0.00 46 1011.9
20260906182222 98 114 1.7 2.6 0.00 0.00 0.00 46 1011.8
20260906181716 98 171 0.9 2.6 0.00 0.00 0.00 46 1011.9
20260906181214 98 111 1.7 4.3 0.00 0.00 0.00 48 1012.2
20260906180708 98 138 0.9 2.6 0.00 0.00 0.00 48 1012.1
20260906180203 98 172 0.0 1.7 0.00 0.00 0.00 49 1012.0
20260906175701 99 51 2.6 5.2 0.00 0.00 0.00 45 1012.2
20260906175156 99 230 0.9 1.7 0.00 0.00 0.00 46 1012.3
20260906174655 98 59 2.6 4.3 0.00 0.00 0.00 46 1012.5
20260906174149 97 251 0.0 2.6 0.00 0.00 0.00 47 1012.6
20260906173645 96 198 0.9 1.7 0.00 0.00 0.00 48 1012.8
20260906173140 96 159 0.9 2.6 0.00 0.00 0.00 49 1012.7
20260906172639 96 55 0.9 5.2 0.00 0.00 0.00 50 1013.0
20260906172135 97 84 3.5 5.2 0.00 0.00 0.00 49 1012.9
20260906171634 96 294 1.7 2.6 0.00 0.00 0.00 52 1012.8
20260906171130 97 132 0.9 2.6 0.00 0.00 0.00 49 1012.7
20260906170627 96 65 1.7 4.3 0.00 0.00 0.00 51 1012.8
20260906170126 96 121 0.0 1.7 0.00 0.00 0.00 51 1012.8
20260906165622 97 53 2.6 4.3 0.00 0.00 0.00 50 1013.0
20260906165117 97 89 0.9 4.3 0.00 0.00 0.00 51 1012.9
20260906164616 96 112 0.9 1.7 0.00 0.00 0.00 52 1013.2
20260906164112 95 138 0.9 5.2 0.00 0.00 0.00 52 1013.3
20260906163607 96 190 1.7 2.6 0.00 0.00 0.00 52 1013.2
20260906163103 95 158 1.7 1.7 0.00 0.00 0.00 54 1013.3
20260906162600 96 108 0.9 1.7 0.00 0.00 0.00 53 1013.2
20260906162055 94 136 0.9 2.6 0.00 0.00 0.00 53 1013.3
20260906161550 96 79 2.6 4.3 0.00 0.00 0.00 53 1013.3
20260906161049 96 108 2.6 4.3 0.00 0.00 0.00 52 1013.3
20260906160548 96 172 0.9 0.9 0.00 0.00 0.00 52 1013.0
20260906160046 96 139 0.9 2.6 0.00 0.00 0.00 54 1013.2
20260906155544 95 316 1.7 1.7 0.00 0.00 0.00 56 1013.3
20260906155040 95 170 0.0 0.9 0.00 0.00 0.00 55 1013.0
20260906154535 97 84 0.9 1.7 0.00 0.00 0.00 53 1013.2
20260906154034 96 192 0.0 0.9 0.00 0.00 0.00 55 1013.2
20260906153533 96 179 0.9 1.7 0.00 0.00 0.00 55 1013.2
20260906153028 96 152 0.0 0.9 0.00 0.00 0.00 55 1012.9
20260906152522 95 162 0.0 0.9 0.00 0.00 0.00 56 1012.9
20260906152021 95 176 0.9 2.6 0.00 0.00 0.00 58 1012.6
20260906151517 96 154 1.7 1.7 0.00 0.00 0.00 56 1012.7
20260906151013 94 204 0.9 1.7 0.00 0.00 0.00 58 1012.8
20260906150508 94 65 0.9 1.7 0.00 0.00 0.00 58 1012.6
20260906150008 94 130 0.9 1.7 0.00 0.00 0.00 60 1012.6
20260906145507 93 138 0.9 1.7 0.00 0.00 0.00 59 1012.5
20260906145003 92 194 0.0 0.9 0.00 0.00 0.00 63 1012.6
20260906144456 92 89 1.7 1.7 0.00 0.00 0.00 61 1012.7
20260906143952 93 122 0.9 0.9 0.00 0.00 0.00 61 1012.5
20260906143447 92 163 0.0 1.7 0.00 0.00 0.00 61 1012.5
20260906142944 91 134 0.0 0.9 0.00 0.00 0.00 62 1012.8
20260906142442 91 140 0.0 0.9 0.00 0.00 0.00 64 1012.6
20260906141938 91 178 0.0 0.9 0.00 0.00 0.00 65 1012.6
20260906141431 89 133 0.0 0.9 0.00 0.00 0.00 66 1012.5
20260906140926 89 152 0.0 0.9 0.00 0.00 0.00 67 1012.5
20260906140420 88 146 0.0 2.6 0.00 0.00 0.00 67 1012.6
20260906135919 87 159 0.0 0.0 0.00 0.00 0.00 69 1012.7
20260906135418 89 122 0.9 1.7 0.00 0.00 0.00 67 1012.7
20260906134914 89 181 0.9 0.9 0.00 0.00 0.00 66 1012.7
20260906134409 89 159 0.0 0.9 0.00 0.00 0.00 67 1012.9
20260906133904 88 139 0.0 0.9 0.00 0.00 0.00 67 1013.0
20260906133400 89 93 0.9 0.9 0.00 0.00 0.00 68 1013.0
20260906132855 89 138 0.0 0.9 0.00 0.00 0.00 67 1012.8
20260906132350 90 138 0.0 0.0 0.00 0.00 0.00 65 1012.8
20260906131846 89 138 0.0 0.0 0.00 0.00 0.00 68 1012.8
20260906131341 87 138 0.0 0.0 0.00 0.00 0.00 69 1012.8
20260906130837 87 138 0.0 0.0 0.00 0.00 0.00 71 1012.8
20260906130336 86 138 0.0 0.0 0.00 0.00 0.00 73 1012.5
20260906125835 84 139 0.0 0.0 0.00 0.00 0.00 75 1012.5
20260906125333 83 139 0.0 0.0 0.00 0.00 0.00 77 1012.3
20260906124828 81 139 0.0 0.0 0.00 0.00 0.00 86 1012.5
20260906124324 79 139 0.0 0.0 0.00 0.00 0.00 88 1012.3
20260906123823 77 139 0.0 0.0 0.00 0.00 0.00 91 1012.4
20260906123318 76 139 0.0 0.0 0.00 0.00 0.00 94 1012.3
20260906122817 75 139 0.0 0.0 0.00 0.00 0.00 94 1012.2
20260906122312 75 139 0.0 0.0 0.00 0.00 0.00 95 1012.4
20260906121810 75 139 0.0 0.0 0.00 0.00 0.00 94 1012.3
20260906121305 75 139 0.0 0.0 0.00 0.00 0.00 94 1012.1
20260906120800 75 139 0.0 0.0 0.00 0.00 0.00 94 1012.1
20260906120257 75 139 0.0 0.0 0.00 0.00 0.00 94 1011.9
20260906115753 75 139 0.0 0.0 0.00 0.00 0.00 93 1012.0
20260906115248 75 139 0.0 0.0 0.00 0.00 0.00 93 1011.8
20260906114746 75 139 0.0 0.0 0.00 0.00 0.00 93 1012.0
20260906114242 75 139 0.0 0.0 0.00 0.00 0.00 93 1011.8
20260906113737 76 139 0.0 0.0 0.00 0.00 0.00 94 1011.7
20260906113237 76 139 0.0 0.0 0.00 0.00 0.00 95 1011.9
20260906112731 75 139 0.0 0.0 0.00 0.00 0.00 94 1011.8
20260906112228 75 139 0.0 0.0 0.00 0.00 0.00 93 1011.6
20260906111727 75 139 0.0 0.0 0.00 0.00 0.00 92 1011.7
20260906111222 75 139 0.0 0.0 0.00 0.00 0.00 92 1011.5
20260906110716 76 139 0.0 0.0 0.00 0.00 0.00 92 1011.9
20260906110207 76 139 0.0 0.0 0.00 0.00 0.00 92 1011.7
20260906105706 76 139 0.0 0.0 0.00 0.00 0.00 92 1011.6
20260906105202 76 139 0.0 0.0 0.00 0.00 0.00 92 1011.5
20260906104701 76 139 0.0 0.0 0.00 0.00 0.00 91 1011.6
20260906104200 76 139 0.0 0.0 0.00 0.00 0.00 91 1011.4
20260906103658 77 139 0.0 0.0 0.00 0.00 0.00 91 1011.5
20260906103153 77 139 0.0 0.0 0.00 0.00 0.00 92 1011.2
20260906102648 76 139 0.0 0.0 0.00 0.00 0.00 90 1011.5
20260906102143 77 139 0.0 0.0 0.00 0.00 0.00 89 1011.4
20260906101642 77 139 0.0 0.0 0.00 0.00 0.00 89 1011.3
20260906101137 77 139 0.0 0.0 0.00 0.00 0.00 88 1011.5
20260906100633 77 139 0.0 0.0 0.00 0.00 0.00 89 1011.3
20260906100127 77 139 0.0 0.0 0.00 0.00 0.00 88 1011.4
20260906095622 77 139 0.0 0.0 0.00 0.00 0.00 87 1011.2
20260906095118 78 139 0.0 0.0 0.00 0.00 0.00 87 1011.2
20260906094616 78 139 0.0 0.0 0.00 0.00 0.00 85 1011.3
20260906094112 78 139 0.0 0.0 0.00 0.00 0.00 85 1011.1
20260906093609 78 139 0.0 0.0 0.00 0.00 0.00 84 1010.9
20260906093103 79 139 0.0 0.0 0.00 0.00 0.00 84 1010.9
20260906092558 79 139 0.0 0.0 0.00 0.00 0.00 83 1010.8
20260906092053 79 139 0.0 0.0 0.00 0.00 0.00 82 1010.9
20260906091549 80 139 0.0 0.0 0.00 0.00 0.00 82 1010.7
20260906091045 80 139 0.0 0.0 0.00 0.00 0.00 81 1010.6
20260906090545 80 139 0.0 0.0 0.00 0.00 0.00 80 1010.8
20260906090040 81 139 0.0 0.0 0.00 0.00 0.00 79 1010.8
20260906085539 81 139 0.0 0.0 0.00 0.00 0.00 79 1010.9
20260906085038 81 139 0.0 0.0 0.00 0.00 0.00 78 1011.0
20260906084533 82 138 0.0 0.0 0.00 0.00 0.00 78 1010.8
20260906084032 82 180 0.9 0.9 0.00 0.00 0.00 77 1010.7
20260906083528 82 191 0.0 0.9 0.00 0.00 0.00 77 1010.8
20260906083027 82 120 1.7 1.7 0.00 0.00 0.00 77 1010.8
20260906082523 82 195 0.0 0.9 0.00 0.00 0.00 77 1010.7
20260906082019 82 227 0.9 0.9 0.00 0.00 0.00 77 1010.7
20260906081514 82 190 0.0 1.7 0.00 0.00 0.00 76 1010.6
20260906081010 82 231 0.0 1.7 0.00 0.00 0.00 76 1010.5
20260906080506 82 221 0.0 0.9 0.00 0.00 0.00 75 1010.5
20260906080002 83 174 0.0 2.6 0.00 0.00 0.00 75 1010.7
20260906075456 82 240 0.9 1.7 0.00 0.00 0.00 75 1010.7
20260906074950 83 166 0.0 0.9 0.00 0.00 0.00 75 1011.0
20260906074445 83 206 0.0 0.9 0.00 0.00 0.00 75 1011.0
20260906073943 83 171 0.0 0.9 0.00 0.00 0.00 75 1011.0
20260906073438 83 155 0.0 0.9 0.00 0.00 0.00 75 1011.1
20260906072935 83 226 0.9 1.7 0.00 0.00 0.00 75 1011.1
20260906072430 83 236 0.9 0.9 0.00 0.00 0.00 75 1011.2
20260906071925 83 184 0.0 0.0 0.00 0.00 0.00 75 1011.2
20260906071416 83 164 0.0 0.9 0.00 0.00 0.00 74 1011.0
20260906070912 83 157 0.0 0.9 0.00 0.00 0.00 74 1010.8
20260906070407 84 158 0.9 0.9 0.00 0.00 0.00 74 1011.0
20260906065903 84 170 0.0 0.9 0.00 0.00 0.00 74 1011.2
20260906065356 84 189 0.9 0.9 0.00 0.00 0.00 74 1011.1
20260906064852 84 183 0.9 0.9 0.00 0.00 0.00 74 1011.0
20260906064348 84 189 0.0 0.0 0.00 0.00 0.00 74 1010.9
20260906063843 84 198 0.0 0.9 0.00 0.00 0.00 74 1011.1
20260906063338 84 172 0.9 1.7 0.00 0.00 0.00 74 1011.2
20260906062833 84 220 0.0 1.7 0.00 0.00 0.00 74 1011.1
20260906062332 84 215 0.0 0.9 0.00 0.00 0.00 74 1011.0
20260906061828 84 137 0.0 0.9 0.00 0.00 0.00 74 1010.9
20260906061324 83 215 0.0 1.7 0.00 0.00 0.00 74 1010.9
20260906060819 83 197 0.0 0.9 0.00 0.00 0.00 75 1011.0
20260906060317 83 231 0.0 0.0 0.00 0.00 0.00 76 1011.3
20260906055812 83 189 0.0 0.9 0.00 0.00 0.00 75 1011.3
20260906055308 83 189 0.0 0.0 0.00 0.00 0.00 74 1011.2
20260906054803 83 189 0.0 0.0 0.00 0.00 0.00 74 1011.3
20260906054258 84 188 0.0 0.0 0.00 0.00 0.00 73 1011.4
20260906053754 84 187 0.0 0.0 0.00 0.00 0.00 72 1011.2
20260906053250 85 187 0.0 0.0 0.00 0.00 0.00 71 1011.2
20260906052745 85 183 0.0 0.0 0.00 0.00 0.00 70 1011.3
20260906052241 85 163 0.0 0.9 0.00 0.00 0.00 70 1011.2
20260906051738 85 173 0.0 0.9 0.00 0.00 0.00 69 1011.3
20260906051237 86 171 0.0 0.9 0.00 0.00 0.00 69 1011.5
20260906050733 86 138 0.9 2.6 0.00 0.00 0.00 69 1011.4
20260906050228 86 168 0.0 0.9 0.00 0.00 0.00 69 1011.6
20260906045726 86 141 0.0 0.9 0.00 0.00 0.00 69 1011.3
20260906045222 85 156 0.0 0.9 0.00 0.00 0.00 69 1011.4
20260906044717 85 142 1.7 1.7 0.00 0.00 0.00 69 1011.2
20260906044212 85 158 0.0 0.9 0.00 0.00 0.00 69 1011.2
20260906043709 85 193 0.0 0.0 0.00 0.00 0.00 69 1011.3
20260906043204 85 176 0.0 0.0 0.00 0.00 0.00 68 1011.3
20260906042703 86 179 0.0 0.0 0.00 0.00 0.00 67 1011.3
20260906042157 86 179 0.0 0.0 0.00 0.00 0.00 66 1011.1
20260906041653 86 233 0.0 0.9 0.00 0.00 0.00 66 1011.1
20260906041148 87 171 0.0 0.9 0.00 0.00 0.00 65 1011.2
20260906040643 87 155 0.0 1.7 0.00 0.00 0.00 65 1011.0
20260906040139 87 141 0.9 0.9 0.00 0.00 0.00 64 1011.0
20260906035634 87 156 0.0 1.7 0.00 0.00 0.00 64 1011.3
20260906035129 87 188 0.0 0.9 0.00 0.00 0.00 64 1011.0
20260906034629 87 207 0.0 0.9 0.00 0.00 0.00 64 1011.1
20260906034124 87 189 0.9 0.9 0.00 0.00 0.00 63 1011.3
20260906033620 88 191 0.9 1.7 0.00 0.00 0.00 62 1011.3
20260906033114 88 187 0.0 0.9 0.00 0.00 0.00 62 1011.2
20260906032611 88 99 0.0 0.9 0.00 0.00 0.00 62 1011.3
20260906032105 88 191 0.0 0.9 0.00 0.00 0.00 61 1011.3
20260906031601 89 175 0.0 1.7 0.00 0.00 0.00 61 1011.1
20260906031057 89 194 0.0 1.7 0.00 0.00 0.00 60 1011.3
20260906030556 89 222 0.9 2.6 0.00 0.00 0.00 60 1011.1
20260906030055 89 76 1.7 1.7 0.00 0.00 0.00 60 1011.3
20260906025550 89 156 0.9 2.6 0.00 0.00 0.00 59 1011.3
20260906025048 89 71 1.7 1.7 0.00 0.00 0.00 59 1011.3
20260906024543 89 128 0.9 4.3 0.00 0.00 0.00 59 1011.0
20260906024038 90 224 1.7 4.3 0.00 0.00 0.00 58 1010.9
20260906023534 90 192 0.0 1.7 0.00 0.00 0.00 58 1010.9
20260906023028 90 147 0.9 1.7 0.00 0.00 0.00 58 1010.8
20260906022523 90 85 1.7 2.6 0.00 0.00 0.00 58 1010.8
20260906022013 90 168 0.9 1.7 0.00 0.00 0.00 57 1010.5
20260906021508 91 77 0.9 0.9 0.00 0.00 0.00 56 1010.5
20260906021002 91 125 1.7 2.6 0.00 0.00 0.00 56 1010.4
20260906020456 91 121 1.7 4.3 0.00 0.00 0.00 55 1010.3
20260906015956 91 113 2.6 5.2 0.00 0.00 0.00 55 1010.3
20260906015455 92 63 4.3 6.1 0.00 0.00 0.00 54 1010.1
20260906014949 92 109 2.6 5.2 0.00 0.00 0.00 53 1010.1
20260906014450 92 230 0.9 4.3 0.00 0.00 0.00 51 1009.9
20260906013945 92 143 0.9 1.7 0.00 0.00 0.00 49 1010.0
20260906013440 93 116 0.0 0.9 0.00 0.00 0.00 48 1009.8
20260906012936 93 107 0.0 0.9 0.00 0.00 0.00 47 1009.4
20260906012431 93 119 0.0 0.0 0.00 0.00 0.00 47 1009.6
20260906011930 93 119 0.0 0.9 0.00 0.00 0.00 46 1009.4
20260906011425 93 128 0.0 0.0 0.00 0.00 0.00 46 1009.2
20260906010921 94 133 0.0 0.0 0.00 0.00 0.00 46 1009.4
20260906010416 94 122 0.0 0.9 0.00 0.00 0.00 45 1009.6
20260906005912 94 137 0.0 0.9 0.00 0.00 0.00 45 1009.2
20260906005411 95 123 0.9 1.7 0.00 0.00 0.00 44 1009.2
20260906004904 95 136 0.0 1.7 0.00 0.00 0.00 44 1009.3
20260906004359 95 101 0.9 0.9 0.00 0.00 0.00 43 1009.4
20260906003855 96 137 0.0 1.7 0.00 0.00 0.00 42 1009.4
20260906003350 96 127 0.0 0.9 0.00 0.00 0.00 42 1009.1
20260906002846 96 89 0.0 0.9 0.00 0.00 0.00 42 1009.3
20260906002345 96 150 0.0 2.6 0.00 0.00 0.00 42 1009.3
20260906001841 97 95 0.9 1.7 0.00 0.00 0.00 41 1009.3
20260906001336 97 112 0.9 1.7 0.00 0.00 0.00 41 1009.2
20260906000831 97 140 0.9 4.3 0.00 0.00 0.00 41 1009.1
20260906000326 98 121 0.9 1.7 0.00 0.00 0.00 41 1009.0
20260905235826 99 163 0.9 2.6 0.00 0.00 0.00 41 1008.9
20260905235325 99 148 0.0 0.9 0.00 0.00 0.00 40 1009.0
20260905234821 98 148 0.0 2.6 0.00 0.00 0.00 41 1009.0
20260905234316 98 118 0.9 1.7 0.00 0.00 0.00 41 1009.0
20260905233811 99 103 0.9 2.6 0.00 0.00 0.00 41 1009.1
20260905233306 99 168 0.9 2.6 0.00 0.00 0.00 40 1009.1
20260905232805 99 180 0.0 0.9 0.00 0.00 0.00 40 1009.0
20260905232301 99 145 0.9 1.7 0.00 0.00 0.00 41 1009.1
20260905231756 99 273 0.9 4.3 0.00 0.00 0.00 41 1009.0
20260905231251 99 82 2.6 2.6 0.00 0.00 0.00 40 1009.1
20260905230742 100 159 0.0 0.9 0.00 0.00 0.00 40 1009.1
20260905230239 99 107 0.9 1.7 0.00 0.00 0.00 40 1008.9